Cosmos 1892 - Orbit

View from above orbital plane
View from above orbital plane
View from above satellite
View from above satellite

Ground track
Ground track

The orbit data is extracted from the following two-line orbital elements,

1 18421U 87088A   13139.03563326  .00004108  00000-0  26887-3 0  7043
2 18421 082.5014 301.9613 0010524 022.4614 115.2194 15.07465849393368
Epoch (UTC): 19 May 2013 00:51:18
Eccentricity: 0.0010524
inclination: 82.5014°
perigee height: 536 km
apogee height: 551 km
right ascension of ascending node: 301.9613°
argument of perigee: 22.4614°
revolutions per day: 15.07465849
mean anomaly at epoch: 115.2194°
orbit number at epoch: 39336

The dashed part of the orbit path shows where the satellite is in the earth's shadow,  

Developed and maintained by Chris Peat, Heavens-Above GmbH. Please read the updated FAQ before sending e-mail. Imprint. DLR